Lid_Strength_Index
2 2 2 3 3 3 3 2 2 2 1 1 1 1 2 2 2 4 7 4 3 -1 -0 5 8 8 8 9 9 9 14 14 11 10 9 6 7 6 5 7 7 6 4 4 2
2 2 2 2 2 2 3 3 2 2 2 1 1 1 1 1 4 6 3 -1 -1 -1 5 7 8 8 11 10 11 12 14 12 9 8 8 7 6 6 7 7 7 7 3 3 2
2 2 2 2 2 2 2 2 2 2 2 2 2 1 1 1 5 5 -1 -2 -2 -1 4 5 6 8 12 11 11 13 13 9 9 8 7 7 7 5 7 8 7 7 7 3 3
2 2 2 2 2 2 2 2 1 1 1 2 2 2 1 4 11 4 -2 -3 -3 1 4 6 8 12 13 13 11 14 11 11 9 8 8 8 7 8 7 7 6 5 5 4 4
2 2 2 2 2 2 2 2 2 2 2 1 1 1 3 6 5 2 -3 -2 -0 2 5 6 10 12 14 12 11 12 11 11 10 10 9 7 8 9 8 6 5 4 4 5 4
2 2 2 2 2 2 2 2 2 2 2 1 1 1 4 9 3 3 -0 2 3 5 7 8 10 9 11 12 12 11 11 11 11 11 11 10 9 8 8 6 6 5 5 5 5
2 2 2 2 2 2 2 2 2 2 2 1 0 1 5 8 3 5 3 6 6 6 7 6 7 9 10 11 10 10 12 11 11 10 10 9 11 11 9 7 6 5 5 5 5
3 3 2 2 2 2 2 2 2 2 2 1 0 3 8 3 3 4 6 6 5 6 6 6 6 8 10 10 10 13 13 16 13 10 9 8 13 10 9 9 9 7 6 5 5
3 3 3 3 3 2 2 2 2 1 1 1 4 6 7 1 5 5 5 6 6 5 6 4 7 9 10 13 15 15 17 16 14 11 10 10 12 9 7 7 8 8 8 7 6
3 3 3 3 3 3 3 3 2 2 2 2 3 7 5 6 6 5 5 5 6 7 7 8 10 12 13 14 18 16 16 14 15 12 12 13 13 11 9 9 9 9 9 8 7
3 3 3 3 3 3 4 6 9 8 6 7 6 5 4 5 5 6 4 6 7 9 12 10 14 15 13 12 11 12 13 14 12 10 12 12 13 11 10 10 10 10 10 9 8
2 3 3 3 3 3 6 8 7 8 11 6 6 6 5 5 8 6 4 8 9 12 11 13 15 11 10 10 11 12 13 14 12 10 11 12 12 11 11 11 10 10 9 9 8
3 3 3 4 4 5 7 5 5 6 11 8 6 6 6 6 8 8 6 8 10 12 12 14 12 9 10 12 11 12 13 12 13 11 11 12 13 12 10 10 9 9 9 8 8
3 3 4 4 6 7 7 5 6 7 14 10 9 8 7 7 9 6 5 8 10 12 12 13 10 11 12 12 10 13 9 10 11 13 17 12 18 14 12 12 11 10 10 9 8
4 4 4 4 8 9 6 5 6 7 19 8 9 6 7 9 8 7 5 8 11 11 12 12 11 11 12 10 8 11 8 10 10 12 14 14 17 15 13 13 11 10 9 9 8
4 4 4 6 7 7 5 6 6 13 18 12 10 10 10 9 8 7 8 7 8 11 11 10 8 9 8 8 8 7 10 10 11 13 16 14 15 16 14 13 11 9 9 8 8
3 4 4 4 8 6 6 7 13 17 9 12 12 9 10 10 9 8 8 11 13 15 14 11 11 8 7 10 8 9 13 18 19 18 17 12 14 14 12 11 9 9 8 7 6
4 4 4 4 6 5 7 11 17 11 12 9 10 9 11 10 9 9 10 11 9 10 14 15 15 10 7 10 11 12 12 18 23 21 18 12 17 14 9 8 7 7 7 7 7
4 6 5 4 3 6 9 15 14 11 10 11 10 12 11 10 10 10 10 11 9 9 14 14 14 8 8 8 9 12 15 10 16 15 19 16 13 10 9 9 8 7 7 8 7
8 7 6 2 3 7 11 12 10 7 8 9 13 11 13 11 11 11 11 8 9 8 9 11 15 9 8 8 8 10 9 15 16 21 22 17 15 15 12 11 9 8 8 8 7
8 8 4 4 6 8 13 12 9 7 8 10 11 12 12 12 11 11 11 8 7 8 8 11 13 12 10 11 12 13 14 14 14 16 20 21 17 11 12 10 10 8 7 8 7
9 10 4 6 12 11 12 9 8 8 7 9 9 10 11 10 11 11 11 9 7 7 11 10 13 16 13 9 8 10 11 12 17 18 17 17 17 9 9 9 8 8 7 6 6
10 9 5 6 15 13 11 9 8 9 8 9 10 10 9 11 13 10 10 7 6 9 11 10 14 17 15 12 10 12 11 12 13 14 18 19 17 9 9 9 7 8 7 6 6
9 12 10 9 10 12 12 11 10 7 8 9 9 9 10 11 10 11 10 8 7 7 6 8 12 15 18 15 12 15 12 11 13 17 16 16 14 11 9 9 8 8 7 8 7
10 12 11 14 13 12 12 10 10 11 8 9 11 10 11 13 11 12 10 9 8 7 8 10 15 13 12 12 12 12 13 12 13 13 16 14 13 10 9 9 8 7 6 7 7
12 13 12 13 12 12 11 12 11 10 10 11 12 10 11 12 11 12 10 11 11 9 11 10 14 13 14 12 12 13 12 12 12 12 12 12 12 8 7 7 7 7 7 7 7
9 9 10 12 13 14 13 12 11 10 9 8 10 11 11 10 7 7 7 7 9 11 12 11 13 15 16 12 13 16 13 12 12 11 11 13 11 9 9 9 7 7 7 8 8